| time (UTC) | temp F | wind direction | speed MPH | gust MPH | rain 1hr in | rain 24hr in | rain mn in | humidity % | barometer mb |
| 20260903131530 | 63 | 113 | 2.0 | 10.0 | 0.00 | 0.00 | 0.00 | 65 | 1012.2 |
| 20260903130029 | 62 | 169 | 3.0 | 10.0 | 0.00 | 0.00 | 0.00 | 67 | 1012.0 |
| 20260903124531 | 61 | 98 | 4.0 | 10.0 | 0.00 | 0.00 | 0.00 | 67 | 1012.0 |
| 20260903123020 | 61 | 88 | 4.0 | 11.0 | 0.00 | 0.00 | 0.00 | 68 | 1012.1 |
| 20260903121527 | 60 | 117 | 5.0 | 10.0 | 0.00 | 0.00 | 0.00 | 68 | 1012.2 |
| 20260903120030 | 60 | 113 | 5.0 | 9.0 | 0.00 | 0.00 | 0.00 | 68 | 1012.3 |
| 20260903114529 | 60 | 116 | 3.0 | 9.0 | 0.00 | 0.00 | 0.00 | 68 | 1012.5 |
| 20260903113033 | 60 | 94 | 3.0 | 8.0 | 0.00 | 0.00 | 0.00 | 68 | 1012.3 |
| 20260903111541 | 60 | 142 | 2.0 | 10.0 | 0.00 | 0.00 | 0.00 | 68 | 1012.5 |
| 20260903110030 | 60 | 161 | 4.0 | 9.0 | 0.00 | 0.00 | 0.00 | 69 | 1012.6 |
| 20260903104509 | 60 | 106 | 4.0 | 10.0 | 0.00 | 0.00 | 0.00 | 69 | 1012.5 |
| 20260903103015 | 60 | 88 | 4.0 | 8.0 | 0.00 | 0.00 | 0.00 | 69 | 1012.4 |
| 20260903101524 | 60 | 114 | 2.0 | 8.0 | 0.00 | 0.00 | 0.00 | 69 | 1012.5 |
| 20260903100028 | 60 | 130 | 4.0 | 8.0 | 0.00 | 0.00 | 0.00 | 69 | 1012.6 |
| 20260903094529 | 60 | 111 | 3.0 | 8.0 | 0.00 | 0.00 | 0.00 | 69 | 1012.6 |
| 20260903093025 | 60 | 121 | 3.0 | 7.0 | 0.00 | 0.00 | 0.00 | 69 | 1012.6 |
| 20260903091529 | 60 | 127 | 3.0 | 8.0 | 0.00 | 0.00 | 0.00 | 69 | 1012.6 |
| 20260903090024 | 60 | 122 | 2.0 | 6.0 | 0.00 | 0.00 | 0.00 | 69 | 1012.4 |
| 20260903084533 | 59 | 123 | 2.0 | 6.0 | 0.00 | 0.00 | 0.00 | 68 | 1012.6 |
| 20260903083029 | 60 | 122 | 2.0 | 6.0 | 0.00 | 0.00 | 0.00 | 68 | 1012.7 |
| 20260903081512 | 60 | 123 | 2.0 | 4.0 | 0.00 | 0.00 | 0.00 | 68 | 1012.8 |
| 20260903080019 | 60 | 121 | 2.0 | 6.0 | 0.00 | 0.00 | 0.00 | 68 | 1012.9 |
| 20260903074526 | 60 | 145 | 2.0 | 4.0 | 0.00 | 0.00 | 0.00 | 68 | 1012.9 |
| 20260903073040 | 60 | 145 | 1.0 | 5.0 | 0.00 | 0.00 | 0.00 | 67 | 1013.0 |
| 20260903071530 | 60 | 116 | 2.0 | 6.0 | 0.00 | 0.00 | 0.00 | 68 | 1013.0 |
| 20260903070016 | 60 | 123 | 0.0 | 4.0 | 0.00 | 0.00 | 0.00 | 68 | 1013.2 |
| 20260903064524 | 60 | 119 | 1.0 | 3.0 | 0.00 | 0.00 | 0.00 | 68 | 1013.3 |
| 20260903063030 | 59 | 117 | 0.0 | 4.0 | 0.00 | 0.00 | 0.00 | 68 | 1013.3 |
| 20260903061551 | 60 | 66 | 0.0 | 2.0 | 0.00 | 0.00 | 0.00 | 67 | 1013.4 |
| 20260903060034 | 60 | 66 | 0.0 | 2.0 | 0.00 | 0.00 | 0.00 | 66 | 1013.4 |
| 20260903054517 | 60 | 66 | 0.0 | 4.0 | 0.00 | 0.00 | 0.00 | 66 | 1013.3 |
| 20260903053023 | 60 | 66 | 0.0 | 2.0 | 0.00 | 0.00 | 0.00 | 66 | 1013.4 |
| 20260903051529 | 60 | 66 | 0.0 | 2.0 | 0.00 | 0.00 | 0.00 | 66 | 1013.6 |
| 20260903050032 | 60 | 66 | 1.0 | 4.0 | 0.00 | 0.00 | 0.00 | 67 | 1013.7 |
| 20260903044535 | 60 | 66 | 0.0 | 2.0 | 0.00 | 0.00 | 0.00 | 67 | 1013.8 |
| 20260903043023 | 60 | 66 | 0.0 | 3.0 | 0.00 | 0.00 | 0.00 | 67 | 1013.8 |
| 20260903041528 | 60 | 66 | 0.0 | 2.0 | 0.00 | 0.00 | 0.00 | 68 | 1013.9 |
| 20260903040032 | 59 | 66 | 0.0 | 2.0 | 0.00 | 0.00 | 0.00 | 68 | 1014.0 |
| 20260903034531 | 60 | 67 | 0.0 | 1.0 | 0.00 | 0.00 | 0.00 | 67 | 1014.0 |
| 20260903033033 | 60 | 67 | 0.0 | 1.0 | 0.00 | 0.00 | 0.00 | 67 | 1014.1 |
| 20260903031528 | 60 | 67 | 0.0 | 3.0 | 0.00 | 0.00 | 0.00 | 68 | 1014.1 |
| 20260903030055 | 61 | 67 | 0.0 | 2.0 | 0.00 | 0.00 | 0.00 | 68 | 1014.1 |
| 20260903024529 | 61 | 66 | 0.0 | 2.0 | 0.00 | 0.00 | 0.00 | 67 | 1013.9 |
| 20260903023032 | 62 | 66 | 0.0 | 0.0 | 0.00 | 0.00 | 0.00 | 67 | 1014.0 |
| 20260903021536 | 62 | 66 | 0.0 | 3.0 | 0.00 | 0.00 | 0.00 | 66 | 1013.9 |
| 20260903020024 | 62 | 67 | 0.0 | 2.0 | 0.00 | 0.00 | 0.00 | 66 | 1013.7 |
| 20260903014530 | 63 | 66 | 0.0 | 1.0 | 0.00 | 0.00 | 0.00 | 64 | 1013.6 |
| 20260903013041 | 64 | 65 | 0.0 | 2.0 | 0.00 | 0.00 | 0.00 | 63 | 1013.6 |
| 20260903011516 | 65 | 65 | 0.0 | 1.0 | 0.00 | 0.00 | 0.00 | 61 | 1013.3 |
| 20260903010032 | 67 | 65 | 0.0 | 2.0 | 0.00 | 0.00 | 0.00 | 58 | 1013.2 |
| 20260903004526 | 69 | 65 | 0.0 | 2.0 | 0.00 | 0.00 | 0.00 | 55 | 1013.3 |
| 20260903003037 | 70 | 65 | 0.0 | 2.0 | 0.00 | 0.00 | 0.00 | 54 | 1013.1 |
| 20260903001531 | 71 | 67 | 0.0 | 2.0 | 0.00 | 0.00 | 0.00 | 53 | 1013.2 |
| 20260903000017 | 72 | 65 | 0.0 | 2.0 | 0.00 | 0.00 | 0.00 | 52 | 1013.1 |
| 20260902234526 | 73 | 67 | 1.0 | 4.0 | 0.00 | 0.00 | 0.00 | 49 | 1013.2 |
| 20260902233028 | 74 | 69 | 1.0 | 5.0 | 0.00 | 0.00 | 0.00 | 48 | 1013.3 |
| 20260902231532 | 74 | 54 | 1.0 | 6.0 | 0.00 | 0.00 | 0.00 | 47 | 1013.3 |
| 20260902230013 | 75 | 11 | 2.0 | 4.0 | 0.00 | 0.00 | 0.00 | 46 | 1013.2 |
| 20260902224532 | 76 | 61 | 1.0 | 5.0 | 0.00 | 0.00 | 0.00 | 44 | 1013.2 |
| 20260902223025 | 77 | 60 | 2.0 | 6.0 | 0.00 | 0.00 | 0.00 | 44 | 1013.2 |
| 20260902221537 | 78 | 72 | 1.0 | 9.0 | 0.00 | 0.00 | 0.00 | 44 | 1013.2 |
| 20260902220050 | 78 | 323 | 2.0 | 6.0 | 0.00 | 0.00 | 0.00 | 42 | 1013.2 |
| 20260902214515 | 77 | 319 | 1.0 | 5.0 | 0.00 | 0.00 | 0.00 | 42 | 1013.4 |
| 20260902213023 | 78 | 71 | 2.0 | 5.0 | 0.00 | 0.00 | 0.00 | 40 | 1013.5 |
| 20260902211530 | 77 | 281 | 2.0 | 8.0 | 0.00 | 0.00 | 0.00 | 41 | 1013.5 |
| 20260902210031 | 78 | 303 | 2.0 | 5.0 | 0.00 | 0.00 | 0.00 | 41 | 1013.5 |
| 20260902204532 | 78 | 59 | 1.0 | 8.0 | 0.00 | 0.00 | 0.00 | 39 | 1013.7 |
| 20260902203018 | 77 | 317 | 0.0 | 3.0 | 0.00 | 0.00 | 0.00 | 41 | 1013.7 |
| 20260902201541 | 78 | 313 | 2.0 | 7.0 | 0.00 | 0.00 | 0.00 | 40 | 1013.8 |
| 20260902200030 | 77 | 107 | 1.0 | 6.0 | 0.00 | 0.00 | 0.00 | 39 | 1013.8 |
| 20260902194525 | 77 | 74 | 3.0 | 6.0 | 0.00 | 0.00 | 0.00 | 42 | 1014.0 |
| 20260902193035 | 77 | 97 | 1.0 | 7.0 | 0.00 | 0.00 | 0.00 | 42 | 1014.0 |
| 20260902191526 | 77 | 65 | 1.0 | 5.0 | 0.00 | 0.00 | 0.00 | 42 | 1014.0 |
| 20260902190026 | 77 | 280 | 2.0 | 8.0 | 0.00 | 0.00 | 0.00 | 41 | 1014.2 |
| 20260902184528 | 77 | 32 | 1.0 | 5.0 | 0.00 | 0.00 | 0.00 | 41 | 1014.2 |
| 20260902183011 | 75 | 65 | 3.0 | 7.0 | 0.00 | 0.00 | 0.00 | 42 | 1014.3 |
| 20260902181516 | 75 | 273 | 1.0 | 6.0 | 0.00 | 0.00 | 0.00 | 42 | 1014.4 |
| 20260902180028 | 76 | 65 | 4.0 | 7.0 | 0.00 | 0.00 | 0.00 | 42 | 1014.5 |
| 20260902174530 | 76 | 65 | 1.0 | 9.0 | 0.00 | 0.00 | 0.00 | 46 | 1014.8 |
| 20260902173030 | 75 | 360 | 1.0 | 6.0 | 0.00 | 0.00 | 0.00 | 46 | 1015.0 |
| 20260902171517 | 76 | 62 | 1.0 | 6.0 | 0.00 | 0.00 | 0.00 | 48 | 1015.1 |
| 20260902170022 | 75 | 315 | 3.0 | 7.0 | 0.00 | 0.00 | 0.00 | 47 | 1015.1 |
| 20260902164533 | 74 | 57 | 2.0 | 4.0 | 0.00 | 0.00 | 0.00 | 50 | 1015.1 |
| 20260902163007 | 74 | 63 | 1.0 | 6.0 | 0.00 | 0.00 | 0.00 | 45 | 1015.0 |
| 20260902161512 | 73 | 46 | 3.0 | 8.0 | 0.00 | 0.00 | 0.00 | 50 | 1015.0 |
| 20260902160016 | 73 | 288 | 2.0 | 7.0 | 0.00 | 0.00 | 0.00 | 51 | 1014.9 |
| 20260902154524 | 72 | 167 | 3.0 | 5.0 | 0.00 | 0.00 | 0.00 | 59 | 1015.0 |
| 20260902153044 | 71 | 178 | 2.0 | 4.0 | 0.00 | 0.00 | 0.00 | 59 | 1015.2 |
| 20260902151508 | 70 | 182 | 1.0 | 3.0 | 0.00 | 0.00 | 0.00 | 64 | 1015.1 |
| 20260902150011 | 69 | 192 | 1.0 | 4.0 | 0.00 | 0.00 | 0.00 | 67 | 1015.0 |
| 20260902144517 | 69 | 360 | 1.0 | 3.0 | 0.00 | 0.00 | 0.00 | 69 | 1015.0 |
| 20260902143026 | 67 | 352 | 1.0 | 4.0 | 0.00 | 0.00 | 0.00 | 71 | 1015.0 |
| 20260902141529 | 66 | 331 | 1.0 | 5.0 | 0.00 | 0.00 | 0.00 | 75 | 1014.9 |
| 20260902140014 | 64 | 331 | 1.0 | 3.0 | 0.00 | 0.00 | 0.00 | 80 | 1014.9 |
| 20260902134514 | 62 | 330 | 1.0 | 3.0 | 0.00 | 0.00 | 0.00 | 82 | 1014.9 |
| 20260902133023 | 60 | 330 | 0.0 | 2.0 | 0.00 | 0.00 | 0.00 | 83 | 1015.2 |